Other Public Products
Issued by NWS Grand Forks, ND

Home | Current Version | Previous Version | Graphics & Text | Print | Product List | Glossary On
Versions: 1 2 3 4 5 6 7 8 9 10 11 12 13 14 15 16 17 18 19 20 21 22 23 24 25 26 27 28 29 30 31 32 33 34 35 36 37 38 39 40 41 42 43 44 45 46 47 48 49 50
000
FPUS83 KFGF 270231
OPUFGF
PRAIRIE TO PINES WEATHER ROUNDUP
NATIONAL WEATHER SERVICE EASTERN NORTH DAKOTA/GRAND FORKS ND
900 PM CDT FRI AUG 26 2016

 **SATELLITE DATA USED TO AUGMENT SKY COVER AT AUTOMATED STATIONS**
 *****  WEATHER ACROSS EASTERN NORTH DAKOTA  *****

CITY           SKY/WX    TMP DP  RH WIND       PRES   REMARKS
GRAND FORKS    PTCLDY    60  53  77 S6        30.00S
GRAND FORKS AF CLOUDY    61  53  73 SW7       30.00S
GRAND CITY NWS   N/A     61 N/A N/A SW3         N/A
BUXTON           N/A     64  60  87 S3          N/A
DEVILS LAKE    CLEAR     64  51  62 S15       30.00R
FARGO          CLOUDY    62  54  74 S6        30.04S
WAHPETON ARPT  CLOUDY    61  57  88 CALM      30.06R
$$

 *****  WEATHER ACROSS CENTRAL AND WESTERN NORTH DAKOTA  *****

CITY           SKY/WX    TMP DP  RH WIND       PRES   REMARKS
JAMESTOWN      CLEAR     56  51  84 S8        30.02S
BISMARCK       CLOUDY    61  55  81 S15       30.00S
MINOT          PTCLDY    64  50  60 S12       29.91F
MINOT AFB      PTCLDY    63  50  63 S7        29.90F
GARRISON         N/A     60  56  86 S7        29.95F
WILLISTON      CLOUDY    64  44  48 CALM      29.93R
DICKINSON      MOCLDY    60  48  64 S10       29.95F
HETTINGER      PTCLDY    59  50  72 SE8       30.01S
$$

 *****  OTHER OBSERVATIONS NORTHEAST NORTH DAKOTA  *****

CITY           SKY/WX    TMP DP  RH WIND       PRES   REMARKS
WALHALLA       FAIR      64  63  94 S8        29.96R
LANGDON        FAIR      57  52  82 S8        30.00R
CAVALIER       FAIR      63  52  67 S7        29.97R
GRAFTON        FAIR      63  54  72 SW12      30.01R
CANDO          FAIR      59  52  77 S8        30.00S
FORT TOTTEN      N/A     61  48  62 S8        29.95S
ROLLA          MOCLDY    55  50  82 S7        29.97R
RUGBY          NOT AVBL
 ***** THE ABOVE OBSERVATIONS ARE NON NWS ARE NOT QUALITY
        CONTROLLED AND MAY MIS-REPORT RAIN FOR SNOW...
$$

 *****  OTHER OBSERVATIONS SOUTHEAST NORTH DAKOTA *****

CITY           SKY/WX    TMP DP  RH WIND       PRES   REMARKS
COOPERSTOWN    NOT AVBL
VALLEY CITY    FAIR      55  55 100 S8        30.06R
OAKES            N/A    N/A N/A N/A MISG        N/A
GWINNER        CLOUDY    61  59  94 SW5       30.06S
SHEYENNE NWR     N/A     61  57  87 SW2       29.95S
BUFFALO          N/A     55  50  85 S7          N/A
WYNDMERE         N/A    N/A N/A N/A CALM        N/A
 ***** THE ABOVE OBSERVATIONS ARE NON NWS ARE NOT QUALITY
       CONTROLLED AND MAY MIS-REPORT RAIN FOR SNOW...
$$

  *****  WEATHER ACROSS NORTHERN MINNESOTA  *****

CITY           SKY/WX    TMP DP  RH WIND       PRES   REMARKS
FLAG ISLAND    CLOUDY    70  57  64 CALM      29.98F
WARROAD        CLOUDY    64  55  72 S3        30.01S
ROSEAU         CLOUDY    63  55  77 S8        30.01R
HALLOCK        CLEAR     64  54  68 S9        29.98R
THF RVR FALLS  CLOUDY    63  52  67 SW7       30.03F
HALSTAD          N/A     62  54  75 S5          N/A
FOSSTON        CLOUDY    63  54  72 SW8       30.07R
BAUDETTE       PTCLDY    62  51  67 S5        30.02S
WASKISH        MOCLDY    63  55  77 CALM      30.05R
CROOKSTON      MOCLDY    63  54  72 SW6       30.03R
$$
  *****  WEATHER ACROSS CENTRAL AND WEST MINNESOTA  *****

CITY           SKY/WX    TMP DP  RH WIND       PRES   REMARKS
BEMIDJI        CLOUDY    65  53  65 S5        30.06R
PARK RAPIDS    CLOUDY    63  52  67 S7        30.07S
WADENA         MOCLDY    57  54  88 S3        30.08R
DETROIT LAKES  PTCLDY    64  54  68 S3        30.08R
MOORHEAD       CLOUDY    63  55  77 SW3       30.06S
FERGUS FALLS   CLOUDY    63  55  77 S5        30.08R
ELBOW LAKE     FAIR      60  57  87 SE6       30.08R
MORRIS MN      CLOUDY    61  57  88 CALM      30.07S
STAPLES        PTCLDY    61  52  72 SE5       30.08S
WHEATON        CLOUDY    64  57  77 SE8       30.08R
$$
  *****  WEATHER ELSEWHERE ACROSS MINNESOTA  *****

CITY           SKY/WX    TMP DP  RH WIND       PRES   REMARKS
DULUTH         PTCLDY    62  55  77 S7        30.11S
INTRNTL FALLS  CLOUDY    56  49  77 CALM      30.05R
ELY            CLOUDY    61  52  72 S6        30.11R
CLOQUET        PTCLDY    61  54  77 CALM      30.11S
BRAINERD       CLOUDY    60  54  80 S3        30.10S
HIBBING        PTCLDY    54  51  90 CALM      30.09S
ALEXANDRIA     PTCLDY    62  54  74 S7        30.10S
SAINT CLOUD    PTCLDY    60  57  89 S5        30.11S
MINNEAPOLIS    CLOUDY    66  55  67 SE6       30.13R
$$

  *****  WEATHER ACROSS SOUTH DAKOTA  *****

CITY           SKY/WX    TMP DP  RH WIND       PRES   REMARKS
SIOUX FALLS    CLOUDY    67  59  75 E10       30.06F
BROOKINGS      CLOUDY    65  57  75 SE7       30.06S
WATERTOWN      CLOUDY    66  53  63 SE6       30.06F
HURON          CLOUDY    64  57  78 E5        30.03S
SISSETON         N/A     64  61  90 SE3       30.05R
ABERDEEN       CLOUDY    60  57  89 E3        30.05S
MITCHELL       CLOUDY    69  56  62 SE9       30.04R
PIERRE         CLEAR     59  54  83 E8        30.02S
MOBRIDGE       CLOUDY    59  52  77 SE8       30.02S
RAPID CITY     PTCLDY    58  55  90 NW6       30.05R
$$

  *****  SOME WEATHER IN NEARBY STATES *****

CITY           SKY/WX    TMP DP  RH WIND       PRES   REMARKS
GLASGOW MT     PTCLDY    62  46  55 W9        29.94S
GREAT FALLS MT CLEAR     65  39  38 E8        29.94F
CHEYENNE WY    CLOUDY    56  51  84 CALM      30.13R
SCOTTSBLUFF NE CLOUDY    60  55  83 SE6       30.03S
OMAHA NE       CLOUDY    68  62  81 NE9       30.06R
DES MOINES IA  LGT RAIN  69  65  86 E10       30.07R
DAVENPORT IA   MOCLDY    70  65  84 E8        30.10S
CHICAGO IL     MOCLDY    71  62  73 NE8       30.13R
EAU CLAIRE WI  CLOUDY    62  59  90 CALM      30.13S
LA CROSSE WI   CLOUDY    69  63  81 SE6       30.13R
$$

  *****  SOME NATIONAL WEATHER *****

CITY           SKY/WX    TMP DP  RH WIND       PRES   REMARKS
LA GUARDIA NY  PTCLDY    84  65  52 NW10      30.03R
RALEIGH NC     PTCLDY    83  74  74 CALM      30.08R
ATLANTA GA     MOCLDY    86  71  60 SE3       30.09R HX  91
NEW ORLEANS LA CLOUDY    84  73  69 SE3       29.97R HX  90
OKLAHOMA CITY  CLOUDY    73  69  87 E7        30.03S
ALBUQUERQUE NM MOCLDY    74  46  36 NW6       30.15R
SALT LAKE CITY PTCLDY    79  26  14 N9        29.97R
LOS ANGELES CA PTCLDY    67  57  70 W13       29.93S
BOISE ID       CLEAR     81  32  17 NW8       29.90F
SEATTLE WA     MOCLDY    88  47  24 W3        29.82F
$$

*** WEATHER ACROSS MANITOBA...SASKATCHEWAN AND ONTARIO ***
                ***ONTARIO***

CITY           SKY/WX    TMP DP  RH WIND       PRES   REMARKS
GERALDTON      PTCLDY    54  48  82 SW2       30.11R
THUNDER BAY    CLOUDY    57  52  82 CALM      30.13R
SIOUX LOOKOUT  PTCLDY    52  52 100 S3        30.03S
TORONTO        CLEAR     72  59  64 N14       30.14R
BIG TROUT LK   CLOUDY    59  57  94 W6        29.94R
PICKLE LAKE    MOCLDY    61  52  72 SW7       30.03R
DRYDEN         CLEAR     63  50  63 S5        30.03S
KENORA         MOCLDY    64  52  63 S6        30.01R
$$
                *** MANITOBA***

CITY           SKY/WX    TMP DP  RH WIND       PRES   REMARKS
BRANDON        MOCLDY    66  50  55 S9G18     29.89R
DAUPHIN        CLOUDY    59  57  94 S8        29.86F
ISLAND LAKE    MOCLDY    61  57  88 SE6       29.88R
PILOT MOUND      N/A     63  50  63 SW10        N/A
THE PAS        CLOUDY    57  55  94 E6        29.80F
THOMPSON       MOCLDY    57  52  82 CALM      29.88R
WINNIPEG       MOCLDY    66  52  59 S3        29.92F
LYNN LAKE      CLEAR     55  45  67 MISG      29.85S
CHURCHILL      PTCLDY    50  41  71 SE8       29.88S
GILLAM         MOCLDY    55  48  76 SE3       29.90S
$$
                ***SASKATCHEWAN***

CITY           SKY/WX    TMP DP  RH WIND       PRES   REMARKS
ESTEVAN        PTCLDY    57  50  77 S6        29.90S
KINDERSLEY     MOCLDY    61  50  67 SW3       29.88F
LLOYDMINSTER   MOCLDY    61  48  63 S6        29.84F
PRINCE ALBERT  MOCLDY    59  54  82 CALM      29.85S
REGINA         MOCLDY    57  52  82 W8        29.90S
YORKTON        MOCLDY    59  55  88 SW6       29.85R   C1F1C2F2C3F3C4F4C5F5C6F6C7F7C8F8C9F9CaFaCbFbCcFcCdFdCe!


USA.gov is the U.S. government's official web portal to all federal, state and local government web resources and services.